KC1UIX-13 Weather Reports


Display with metric or nautical units.
time (UTC)temp
F
wind
direction
speed
MPH
gust
MPH
rain 1hr
in
rain 24hr
in
rain mn
in
humidity
%
barometer
mb
20260902125019 62 21 0.0 2.0 0.00 0.00 0.00 95 1022.3
20260902124039 62 20 0.0 2.0 0.00 0.00 0.00 95 1022.3
20260902123043 62 20 0.0 1.0 0.00 0.00 0.00 95 1022.2
20260902122019 62 36 0.0 2.0 0.00 0.00 0.00 95 1022.3
20260902121017 62 16 1.0 2.0 0.00 0.00 0.00 95 1022.4
20260902120016 62 14 0.0 2.0 0.00 0.00 0.00 95 1022.3
20260902115057 62 21 0.0 2.0 0.00 0.00 0.00 95 1022.2
20260902114017 61 18 0.0 2.0 0.00 0.00 0.00 95 1022.2
20260902113020 61 8 0.0 2.0 0.00 0.00 0.00 95 1022.2
20260902112021 61 6 0.0 2.0 0.00 0.00 0.00 95 1022.1
20260902111017 61 18 0.0 2.0 0.00 0.00 0.00 95 1021.9
20260902110018 61 344 0.0 2.0 0.00 0.00 0.00 95 1021.7
20260902105018 61 6 0.0 2.0 0.00 0.00 0.00 95 1021.7
20260902104018 61 321 0.0 1.0 0.00 0.00 0.00 95 1021.7
20260902103018 61 343 0.0 2.0 0.00 0.00 0.00 95 1021.8
20260902102019 61 21 0.0 2.0 0.00 0.00 0.00 95 1021.8
20260902101039 61 344 0.0 1.0 0.00 0.00 0.00 95 1021.7
20260902100039 61 346 0.0 2.0 0.00 0.00 0.00 95 1021.7
20260902095019 61 351 0.0 2.0 0.00 0.00 0.00 95 1021.7
20260902094040 61 23 0.0 3.0 0.00 0.00 0.00 95 1021.5
20260902093019 61 18 0.0 1.0 0.00 0.00 0.00 95 1021.3
20260902092017 61 18 0.0 1.0 0.00 0.00 0.00 95 1021.3
20260902091019 61 27 0.0 1.0 0.00 0.00 0.00 95 1021.3
20260902090040 61 335 0.0 1.0 0.00 0.00 0.00 95 1021.3
20260902085020 61 16 0.0 1.0 0.00 0.00 0.00 95 1021.3
20260902084037 61 8 0.0 1.0 0.00 0.00 0.00 95 1021.2
20260902083017 61 6 0.0 1.0 0.00 0.00 0.00 95 1021.3
20260902082017 61 346 0.0 1.0 0.00 0.00 0.00 95 1021.3
20260902081038 61 7 0.0 2.0 0.00 0.00 0.00 95 1021.4
20260902080018 61 358 1.0 2.0 0.00 0.00 0.00 95 1021.3
20260902075019 61 344 0.0 2.0 0.00 0.00 0.00 95 1021.1
20260902074018 61 7 0.0 1.0 0.00 0.00 0.00 95 1021.0
20260902073018 61 0.0 0.0 0.00 0.00 0.00 95 1020.8
20260902072018 61 290 1.0 2.0 0.00 0.00 0.00 95 1020.9
20260902071019 61 336 1.0 2.0 0.00 0.00 0.00 95 1020.9
20260902070019 61 354 1.0 2.0 0.00 0.00 0.00 95 1020.9
20260902065039 61 337 1.0 2.0 0.00 0.00 0.00 95 1020.9
20260902064019 61 358 0.0 2.0 0.00 0.00 0.00 95 1020.8
20260902063019 61 357 1.0 2.0 0.00 0.00 0.00 95 1020.8
20260902062019 61 320 0.0 1.0 0.00 0.00 0.00 95 1020.9
20260902061019 61 315 0.0 1.0 0.00 0.00 0.00 95 1021.1
20260902060017 61 338 0.0 2.0 0.00 0.00 0.00 94 1021.0
20260902055017 61 324 0.0 1.0 0.00 0.00 0.00 94 1020.9
20260902054021 61 350 1.0 2.0 0.00 0.00 0.00 94 1020.8
20260902053017 61 8 0.0 1.0 0.00 0.00 0.00 94 1020.6
20260902052018 61 345 0.0 1.0 0.00 0.00 0.00 94 1020.5
20260902051017 61 3 0.0 1.0 0.00 0.00 0.00 94 1020.4
20260902050018 61 356 0.0 1.0 0.00 0.00 0.00 94 1020.2
20260902045037 61 7 0.0 1.0 0.00 0.00 0.00 94 1020.1
20260902044018 61 346 0.0 1.0 0.00 0.00 0.00 94 1020.1
20260902043018 61 351 0.0 1.0 0.00 0.00 0.00 94 1020.0
20260902042038 61 350 0.0 2.0 0.00 0.00 0.00 94 1019.9
20260902041018 61 359 0.0 2.0 0.00 0.00 0.00 94 1019.9
20260902040019 61 351 0.0 1.0 0.00 0.00 0.00 94 1019.9
20260902035039 61 356 0.0 2.0 0.00 0.00 0.00 94 1019.9
20260902034019 61 315 1.0 3.0 0.00 0.00 0.00 94 1019.7
20260902033037 61 326 1.0 3.0 0.00 0.00 0.00 94 1019.6
20260902032019 61 351 0.0 1.0 0.00 0.00 0.00 93 1019.3
20260902031019 61 350 0.0 1.0 0.00 0.00 0.00 93 1019.3
20260902030019 61 327 0.0 2.0 0.00 0.00 0.00 93 1019.3
20260902025020 61 335 0.0 0.0 0.00 0.00 0.00 93 1019.4
20260902024017 61 354 0.0 1.0 0.00 0.00 0.00 93 1019.5
20260902023017 61 356 0.0 2.0 0.00 0.00 0.00 93 1019.4
20260902022017 61 345 0.0 2.0 0.00 0.00 0.00 93 1019.4
20260902021020 62 352 0.0 1.0 0.00 0.00 0.00 93 1019.5
20260902020021 62 350 0.0 2.0 0.00 0.00 0.00 93 1019.7
20260902015018 62 351 0.0 1.0 0.00 0.00 0.00 93 1019.6
20260902014018 62 346 0.0 2.0 0.00 0.00 0.00 92 1019.6
20260902013038 62 340 1.0 2.0 0.00 0.00 0.00 92 1019.6
20260902012018 62 354 0.0 1.0 0.00 0.00 0.00 92 1019.5
20260902011021 62 350 0.0 1.0 0.00 0.00 0.00 92 1019.3
20260902010019 62 354 0.0 1.0 0.00 0.00 0.00 92 1019.4
20260902005019 63 11 0.0 2.0 0.00 0.00 0.00 91 1019.4
20260902004019 63 8 0.0 1.0 0.00 0.00 0.00 91 1019.2
20260902003019 63 37 0.0 1.0 0.00 0.00 0.00 91 1019.0
20260902002019 63 355 0.0 1.0 0.00 0.00 0.00 91 1018.9
20260902001020 62 67 0.0 0.0 0.00 0.00 0.00 90 1018.9
20260902000017 62 43 0.0 1.0 0.00 0.00 0.00 90 1018.9
20260901235017 63 342 0.0 0.0 0.00 0.00 0.00 89 1019.0
20260901234100 63 7 0.0 0.0 0.00 0.00 0.00 89 1018.9
20260901233020 63 319 0.0 0.0 0.00 0.00 0.00 88 1018.9
20260901232018 63 284 0.0 0.0 0.00 0.00 0.00 88 1018.9
20260901231018 64 29 0.0 1.0 0.00 0.00 0.00 88 1018.8
20260901230018 64 254 0.0 1.0 0.00 0.00 0.00 87 1018.7
20260901225018 65 11 0.0 1.0 0.00 0.00 0.00 87 1018.6
20260901224018 65 335 0.0 1.0 0.00 0.00 0.00 87 1018.5
20260901223018 65 3 0.0 1.0 0.00 0.00 0.00 87 1018.5
20260901222039 65 278 0.0 2.0 0.00 0.00 0.00 87 1018.5
20260901221039 65 231 0.0 2.0 0.00 0.00 0.00 86 1018.6
20260901220019 66 261 0.0 2.0 0.00 0.00 0.00 86 1018.6
20260901215039 66 219 0.0 2.0 0.00 0.00 0.00 85 1018.6
20260901214019 66 217 1.0 4.0 0.00 0.00 0.00 84 1018.5
20260901213016 67 237 0.0 2.0 0.00 0.00 0.00 83 1018.4
20260901212019 67 267 0.0 2.0 0.00 0.00 0.00 83 1018.4
20260901211019 68 215 0.0 3.0 0.00 0.00 0.00 82 1018.3
20260901210020 68 243 0.0 2.0 0.00 0.00 0.00 81 1018.3
20260901205019 69 198 0.0 2.0 0.00 0.00 0.00 80 1018.2
20260901204017 69 214 0.0 3.0 0.00 0.00 0.00 80 1018.1
20260901203017 68 200 0.0 2.0 0.00 0.00 0.00 82 1018.0
20260901202018 67 213 1.0 3.0 0.00 0.00 0.00 83 1018.1
20260901201017 67 226 1.0 3.0 0.00 0.00 0.00 83 1018.1
20260901200021 68 225 0.0 2.0 0.00 0.00 0.00 81 1018.2
20260901195018 68 220 0.0 2.0 0.00 0.00 0.00 80 1018.3
20260901194018 69 256 0.0 2.0 0.00 0.00 0.00 79 1018.3
20260901193018 69 351 0.0 2.0 0.00 0.00 0.00 79 1018.4
20260901192018 68 260 0.0 2.0 0.00 0.00 0.00 80 1018.5
20260901191019 68 354 0.0 2.0 0.00 0.00 0.00 80 1018.5
20260901190018 68 5 0.0 2.0 0.00 0.00 0.00 79 1018.5
20260901185019 68 327 0.0 2.0 0.00 0.00 0.00 79 1018.4
20260901184019 69 31 0.0 4.0 0.00 0.00 0.00 77 1018.4
20260901183019 69 18 0.0 3.0 0.00 0.00 0.00 76 1018.5
20260901182019 70 301 0.0 3.0 0.00 0.00 0.00 76 1018.3
20260901181019 70 335 0.0 3.0 0.00 0.00 0.00 75 1018.2
20260901180020 70 15 0.0 2.0 0.00 0.00 0.00 74 1018.1
20260901175017 70 23 0.0 3.0 0.00 0.00 0.00 75 1018.0
20260901174018 70 310 0.0 2.0 0.00 0.00 0.00 74 1018.1
20260901173020 70 35 0.0 2.0 0.00 0.00 0.00 73 1018.1
20260901172020 70 20 0.0 1.0 0.00 0.00 0.00 72 1018.1
20260901171020 70 13 0.0 2.0 0.00 0.00 0.00 72 1017.9
20260901170018 69 41 0.0 2.0 0.00 0.00 0.00 71 1017.9
20260901165018 68 263 0.0 4.0 0.00 0.00 0.00 72 1018.0
20260901164018 68 258 1.0 3.0 0.00 0.00 0.00 72 1018.1
20260901163018 67 264 1.0 4.0 0.00 0.00 0.00 73 1018.2
20260901162018 68 249 1.0 3.0 0.00 0.00 0.00 72 1018.3
20260901161016 67 299 1.0 3.0 0.00 0.00 0.00 72 1018.4
20260901160039 67 307 1.0 3.0 0.00 0.00 0.00 72 1018.4
20260901155019 67 325 2.0 4.0 0.00 0.00 0.00 72 1018.4
20260901154019 66 334 1.0 4.0 0.00 0.00 0.00 74 1018.3
20260901153019 65 356 2.0 4.0 0.00 0.00 0.00 74 1018.2
20260901152020 65 0 2.0 4.0 0.00 0.00 0.00 75 1018.1
20260901151017 65 357 1.0 5.0 0.00 0.00 0.00 75 1018.2
20260901150017 64 8 1.0 3.0 0.00 0.00 0.00 77 1018.1
20260901145017 64 2 1.0 3.0 0.00 0.00 0.00 77 1018.0
20260901144017 63 9 0.0 2.0 0.00 0.00 0.00 79 1017.9
20260901143017 62 6 0.0 2.0 0.00 0.00 0.00 80 1017.9
20260901142020 62 358 0.0 2.0 0.00 0.00 0.00 83 1018.1
20260901141018 61 344 0.0 2.0 0.00 0.00 0.00 85 1018.3
20260901140038 60 299 1.0 2.0 0.00 0.00 0.00 86 1018.3
20260901135018 60 341 1.0 3.0 0.00 0.00 0.00 86 1018.3
20260901134018 60 344 1.0 3.0 0.00 0.00 0.00 88 1018.2
20260901133019 59 349 1.0 3.0 0.00 0.00 0.00 89 1018.1
20260901132019 59 347 1.0 3.0 0.00 0.00 0.00 89 1018.1
20260901131019 59 324 1.0 3.0 0.00 0.00 0.00 89 1018.2
20260901130039 58 342 1.0 3.0 0.00 0.00 0.00 90 1018.2